When you browse on this site, cookies collect data to enhance your experience and personalize the content and advertising you see.
Visit our Privacy Policy to learn more. By continuing to use the site, you agree to this use of cookies and data.
  • In Romania
  • List of Countries
  • For 7 days
  • Water Temperature
  • Weather Map
  • Weather Widgets
  • user-avatar
    Login

    Hourly Weather Kastoria

    Today, 15 October, Tuesday

    Time Temperature Precipitation Wind Pressure Humidity
    00:00 +16°C° 0 mm 0 mps 706 mmHg 75%
    01:00 +15°C° 0 mm 0 mps 706 mmHg 77%
    02:00 +15°C° 0 mm 0 mps 705 mmHg 78%
    03:00 +15°C° 0 mm 0 mps 705 mmHg 79%
    04:00 +14°C° 0 mm 0 mps 705 mmHg 80%
    05:00 +15°C° 0 mm 0 mps 705 mmHg 77%
    06:00 +16°C° 0 mm 0 mps 705 mmHg 74%
    07:00 +17°C° 0 mm 0 mps 706 mmHg 71%
    08:00 +18°C° 0 mm 0 mps 706 mmHg 64%
    09:00 +22°C° 0 mm 1 mps 706 mmHg 56%
    10:00 +24°C° 0 mm 1 mps 706 mmHg 49%
    11:00 +25°C° 0 mm 1 mps 706 mmHg 45%
    12:00 +26°C° 0 mm 1 mps 706 mmHg 41%
    13:00 +27°C° 0 mm 1 mps 706 mmHg 37%
    14:00 +26°C° 0 mm 1 mps 705 mmHg 39%
    15:00 +26°C° 0 mm 1 mps 705 mmHg 40%
    16:00 +25°C° 0 mm 1 mps 704 mmHg 42%
    17:00 +23°C° 0 mm 1 mps 704 mmHg 46%
    18:00 +22°C° 0 mm 1 mps 704 mmHg 51%
    19:00 +20°C° 0 mm 1 mps 704 mmHg 55%
    20:00 +19°C° 0 mm 1 mps 704 mmHg 58%
    21:00 +19°C° 0 mm 1 mps 704 mmHg 60%
    22:00 +18°C° 0 mm 1 mps 704 mmHg 63%
    23:00 +18°C° 0 mm 1 mps 704 mmHg 65%

    Tomorrow, 16 October, Wednesday

    Time Temperature Precipitation Wind Pressure Humidity
    00:00 +16°C° 0 mm 1 mps 704 mmHg 68%
    01:00 +16°C° 0 mm 1 mps 704 mmHg 70%
    02:00 +16°C° 0 mm 1 mps 704 mmHg 72%
    03:00 +16°C° 0 mm 1 mps 703 mmHg 74%
    04:00 +15°C° 0 mm 1 mps 703 mmHg 76%
    05:00 +16°C° 0 mm 1 mps 703 mmHg 75%
    06:00 +18°C° 0 mm 1 mps 704 mmHg 73%
    07:00 +18°C° 0 mm 1 mps 704 mmHg 71%
    08:00 +18°C° 0 mm 0 mps 704 mmHg 63%
    09:00 +20°C° 0 mm 0 mps 705 mmHg 54%
    10:00 +22°C° 0 mm 0 mps 705 mmHg 46%
    11:00 +25°C° 0 mm 1 mps 705 mmHg 43%
    12:00 +26°C° 0 mm 1 mps 705 mmHg 39%
    13:00 +27°C° 0 mm 1 mps 704 mmHg 36%
    14:00 +26°C° 0 mm 1 mps 704 mmHg 38%
    15:00 +25°C° 0 mm 1 mps 704 mmHg 40%
    16:00 +25°C° 0 mm 1 mps 704 mmHg 42%
    17:00 +23°C° 0 mm 1 mps 704 mmHg 46%
    18:00 +22°C° 0 mm 1 mps 704 mmHg 51%
    19:00 +20°C° 0 mm 1 mps 704 mmHg 55%
    20:00 +17°C° 0 mm 0 mps 704 mmHg 57%
    21:00 +17°C° 0 mm 0 mps 704 mmHg 58%
    22:00 +16°C° 0 mm 0 mps 704 mmHg 60%
    23:00 +16°C° 0 mm 0 mps 704 mmHg 61%

    Day after tomorrow, 17 October, Thursday

    Time Temperature Precipitation Wind Pressure Humidity
    00:00 +15°C° 0 mm 0 mps 704 mmHg 63%
    01:00 +15°C° 0 mm 0 mps 704 mmHg 64%
    02:00 +15°C° 0 mm 0 mps 704 mmHg 65%
    03:00 +15°C° 0 mm 0 mps 704 mmHg 66%
    04:00 +14°C° 0 mm 0 mps 704 mmHg 67%
    05:00 +15°C° 0 mm 0 mps 704 mmHg 66%
    06:00 +16°C° 0 mm 0 mps 704 mmHg 64%
    07:00 +16°C° 0 mm 0 mps 704 mmHg 63%
    08:00 +18°C° 0 mm 0 mps 704 mmHg 57%
    09:00 +20°C° 0 mm 0 mps 705 mmHg 51%
    10:00 +24°C° 0 mm 1 mps 705 mmHg 46%
    11:00 +24°C° 0 mm 1 mps 705 mmHg 43%
    12:00 +25°C° 0 mm 1 mps 705 mmHg 40%
    13:00 +26°C° 0 mm 2 mps 705 mmHg 37%
    14:00 +25°C° 0 mm 2 mps 705 mmHg 39%
    15:00 +24°C° 0 mm 1 mps 704 mmHg 42%
    16:00 +24°C° 0 mm 1 mps 704 mmHg 44%
    17:00 +22°C° 0 mm 1 mps 704 mmHg 48%
    18:00 +21°C° 0 mm 1 mps 704 mmHg 52%
    19:00 +18°C° 0 mm 0 mps 704 mmHg 56%
    20:00 +17°C° 0 mm 0 mps 704 mmHg 58%
    21:00 +16°C° 0 mm 0 mps 704 mmHg 61%
    22:00 +16°C° 0 mm 0 mps 705 mmHg 63%
    23:00 +15°C° 0 mm 0 mps 704 mmHg 64%

    18 October, Friday

    Time Temperature Precipitation Wind Pressure Humidity
    00:00 +15°C° 0 mm 0 mps 704 mmHg 66%
    01:00 +15°C° 0 mm 0 mps 704 mmHg 67%
    02:00 +14°C° 0 mm 0 mps 704 mmHg 68%
    03:00 +14°C° 0 mm 0 mps 704 mmHg 69%
    04:00 +14°C° 0 mm 0 mps 704 mmHg 70%
    05:00 +14°C° 0 mm 0 mps 704 mmHg 68%
    06:00 +15°C° 0 mm 0 mps 704 mmHg 67%
    07:00 +16°C° 0 mm 0 mps 704 mmHg 66%
    08:00 +18°C° 0 mm 0 mps 705 mmHg 58%
    09:00 +21°C° 0 mm 1 mps 705 mmHg 51%
    10:00 +23°C° 0 mm 1 mps 706 mmHg 44%
    11:00 +24°C° 0 mm 1 mps 705 mmHg 41%
    12:00 +25°C° 0 mm 2 mps 705 mmHg 38%
    13:00 +25°C° 0 mm 2 mps 705 mmHg 36%
    14:00 +25°C° 0 mm 2 mps 705 mmHg 39%
    15:00 +24°C° 0 mm 2 mps 705 mmHg 41%
    16:00 +23°C° 0 mm 1 mps 704 mmHg 44%
    17:00 +22°C° 0 mm 1 mps 704 mmHg 50%
    18:00 +20°C° 0 mm 1 mps 704 mmHg 55%
    19:00 +17°C° 0 mm 0 mps 704 mmHg 61%
    20:00 +16°C° 0 mm 0 mps 704 mmHg 63%
    21:00 +16°C° 0 mm 0 mps 705 mmHg 65%
    22:00 +15°C° 0 mm 0 mps 705 mmHg 67%
    23:00 +15°C° 0 mm 0 mps 704 mmHg 69%

    19 October, Saturday

    Time Temperature Precipitation Wind Pressure Humidity
    00:00 +15°C° 0 mm 0 mps 704 mmHg 70%
    01:00 +14°C° 0 mm 0 mps 704 mmHg 72%
    02:00 +14°C° 0 mm 0 mps 704 mmHg 73%
    03:00 +14°C° 0 mm 0 mps 704 mmHg 74%
    04:00 +13°C° 0 mm 0 mps 704 mmHg 75%
    05:00 +14°C° 0 mm 0 mps 704 mmHg 73%
    06:00 +15°C° 0 mm 0 mps 704 mmHg 71%
    07:00 +15°C° 0 mm 0 mps 705 mmHg 68%
    08:00 +17°C° 0 mm 0 mps 705 mmHg 61%
    09:00 +21°C° 0 mm 1 mps 705 mmHg 54%
    10:00 +23°C° 0 mm 1 mps 706 mmHg 46%
    11:00 +23°C° 0 mm 2 mps 706 mmHg 43%
    12:00 +24°C° 0 mm 2 mps 705 mmHg 40%
    13:00 +25°C° 0 mm 2 mps 705 mmHg 37%
    14:00 +24°C° 0 mm 2 mps 705 mmHg 39%
    15:00 +24°C° 0 mm 2 mps 705 mmHg 42%
    16:00 +23°C° 0 mm 2 mps 705 mmHg 44%
    17:00 +21°C° 0 mm 1 mps 705 mmHg 49%
    18:00 +20°C° 0 mm 1 mps 705 mmHg 54%
    19:00 +18°C° 0 mm 1 mps 705 mmHg 59%
    20:00 +16°C° 0 mm 0 mps 705 mmHg 61%
    21:00 +15°C° 0 mm 0 mps 705 mmHg 62%
    22:00 +15°C° 0 mm 0 mps 705 mmHg 64%
    23:00 +14°C° 0 mm 0 mps 705 mmHg 65%

    20 October, Sunday

    Time Temperature Precipitation Wind Pressure Humidity
    00:00 +14°C° 0 mm 0 mps 705 mmHg 67%
    01:00 +14°C° 0 mm 0 mps 705 mmHg 68%
    02:00 +13°C° 0 mm 0 mps 705 mmHg 69%
    03:00 +13°C° 0 mm 0 mps 704 mmHg 70%
    04:00 +13°C° 0 mm 0 mps 704 mmHg 71%
    05:00 +13°C° 0 mm 0 mps 705 mmHg 69%
    06:00 +14°C° 0 mm 0 mps 705 mmHg 67%
    07:00 +15°C° 0 mm 0 mps 705 mmHg 65%
    08:00 +19°C° 0 mm 1 mps 705 mmHg 58%
    09:00 +21°C° 0 mm 1 mps 706 mmHg 50%
    10:00 +22°C° 0 mm 1 mps 706 mmHg 43%
    11:00 +23°C° 0 mm 2 mps 706 mmHg 40%
    12:00 +24°C° 0 mm 2 mps 706 mmHg 37%
    13:00 +25°C° 0 mm 2 mps 706 mmHg 35%
    14:00 +24°C° 0 mm 2 mps 706 mmHg 37%
    15:00 +23°C° 0 mm 2 mps 706 mmHg 40%
    16:00 +23°C° 0 mm 2 mps 705 mmHg 42%
    17:00 +21°C° 0 mm 1 mps 705 mmHg 47%
    18:00 +20°C° 0 mm 1 mps 705 mmHg 52%
    19:00 +18°C° 0 mm 1 mps 706 mmHg 56%
    20:00 +16°C° 0 mm 1 mps 706 mmHg 58%
    21:00 +16°C° 0 mm 1 mps 706 mmHg 59%
    22:00 +15°C° 0 mm 0 mps 706 mmHg 61%
    23:00 +14°C° 0 mm 0 mps 706 mmHg 62%
    Show more